Flag for Switzerland Weather past 2 weeks in Schaffhausen, Schaffhausen, Switzerland

Now
60 °F

Partly sunny.


Feels Like: 60 °F
Forecast: 40 / 45 °F
Wind: 8 mph from West

Location: Zurich-Kloten

Current Time: Oct 21, 2014 at 12:49:08 PM

Latest Report: Oct 21, 2014 at 11:00 AM


Visibility: 13 mi

Pressure: 29.97 "Hg

Humidity: 86%

Dew point: 56 °F

Location of SchaffhausenLocation

Historic Weather in Schaffhausen — Graph

°F

Schaffhausen temperature yesterday

Maximum temperature yesterday: 70 °F (at 2:00 PM)
Minimum temperature yesterday: 51 °F (at 7:00 AM)
Average temperature yesterday: 61 °F

Past Weeks' High & Low Weather Summary

 TemperatureHumidityPressure
High75 °F (Oct 9, 4:00 PM)100% (Oct 9, 1:00 AM)30.27 "Hg (Oct 9, 1:00 AM)
Low46 °F (Oct 14, 7:00 AM)41% (Oct 9, 3:00 PM)29.75 "Hg (Oct 15, 6:00 PM)
Average58 °F86%29.95 "Hg
* Reported Oct 6 11:00 AM — Oct 21 11:00 AM, Schaffhausen, Weather by CustomWeather, © 2014

Note: Actual official high and low records may vary slightly from our data, if they occured in-between our weather recording intervals... More about our weather records

Advertising

Schaffhausen weather history for previous 24 hours

 ConditionsComfort  
Time TempWeatherWind HumidityBarometerVisibility
11:00 AM
Oct 21
60 °FPartly sunny.8 mph86%29.97 "Hg12 mi
10:00 AM58 °FCool.3 mph94%29.98 "HgN/A
9:00 AM57 °FCool.3 mph94%29.98 "HgN/A
8:00 AM56 °FOvercast.1 mph93%29.98 "Hg7 mi
7:00 AM57 °FCool.3 mph92%29.98 "HgN/A
6:00 AM57 °FCool.3 mph92%29.99 "HgN/A
5:00 AM58 °FOvercast.6 mph91%30.01 "Hg9 mi
4:00 AM59 °FCool.7 mph94%30.01 "HgN/A
3:00 AM59 °FCool.5 mph91%30.02 "HgN/A
2:00 AM59 °FOvercast.1 mph90%30.04 "Hg9 mi
1:00 AM59 °FCool.3 mph90%30.04 "HgN/A
12:00 AM59 °FCool.3 mph92%30.05 "HgN/A
11:00 PM
Oct 20
61 °FRain showers. Overcast.6 mph90%30.06 "Hg3 mi
10:00 PM62 °FCool.8 mph90%30.05 "HgN/A
9:00 PM63 °FMild.3 mph88%30.04 "HgN/A
8:00 PM65 °FLight rain. Overcast.1 mph78%30.03 "Hg12 mi
7:00 PM66 °FMild.2 mph76%30.03 "HgN/A
6:00 PM65 °FMild.2 mph77%30.03 "HgN/A
5:00 PM68 °FOvercast.3 mph71%30.03 "Hg16 mi
4:00 PM69 °FMild.5 mph70%30.05 "HgN/A
3:00 PM69 °FMild.6 mph64%30.07 "HgN/A
2:00 PM70 °FPartly sunny.1 mph65%30.09 "Hg19 mi
1:00 PM68 °FMild.7 mph65%30.11 "HgN/A
12:00 PM65 °FMild.3 mph70%30.14 "HgN/A
Weather by CustomWeather, © 2014

See weather overviewHow to use our weather pages